Flag for Kazakhstan Weather past 2 weeks in Astana, Kazakhstan

Now
28 °F

Snow. Mostly cloudy.


Feels Like: 22 °F
Forecast: 3 / 18 °F
Wind: 6 mph from Southwest

Location: Astana

Current Time: Mar 27, 2015 at 8:29:11 AM

Latest Report: Mar 27, 2015 at 8:00 AM


Visibility: 2 mi

Pressure: 30.21 "Hg

Humidity: 93%

Dew point: 27 °F

Location of AstanaLocation

Historic Weather in Astana — Graph

°F

Astana temperature yesterday

Maximum temperature yesterday: 30 °F (at 7:30 PM)
Minimum temperature yesterday: 18 °F (at 12:00 AM)
Average temperature yesterday: 24 °F

Past Weeks' High & Low Weather Summary

 TemperatureHumidityPressure
High37 °F (Mar 22, 5:00 PM)100% (Mar 14, 6:00 AM)30.57 "Hg (Mar 14, 6:00 AM)
Low0 °F (Mar 21, 5:00 AM)59% (Mar 17, 11:30 AM)29.42 "Hg (Mar 24, 1:00 PM)
Average22 °F86%30.18 "Hg
* Reported Mar 12 7:00 AM — Mar 27 7:00 AM, Astana, Weather by CustomWeather, © 2015

Note: Actual official high and low records may vary slightly from our data, if they occured in-between our weather recording intervals... More about our weather records

Advertising

Astana weather history for previous 24 hours

 ConditionsComfort  
Time TempWeatherWind HumidityBarometerVisibility
7:00 AM
Fri, Mar 27
28 °FSnow. Mostly cloudy.6 mph93%30.21 "Hg1 mi
6:30 AM28 °FSnow. Mostly cloudy.6 mph100%30.21 "Hg2 mi
6:00 AM28 °FLight snow. Mostly cloudy.6 mph93%30.21 "Hg3 mi
5:30 AM28 °FSnow. Mostly cloudy.6 mph100%30.21 "Hg2 mi
5:00 AM28 °FSnow. Mostly cloudy.8 mph100%30.21 "Hg1 mi
4:30 AM28 °FSnow. Mostly cloudy.8 mph100%30.21 "Hg2 mi
4:00 AM28 °FSnow. Mostly cloudy.8 mph100%30.21 "Hg1 mi
3:30 AM28 °FSnow. Mostly cloudy.8 mph100%30.24 "Hg1 mi
3:00 AM28 °FSnow. Mostly cloudy.8 mph100%30.24 "Hg1 mi
2:30 AM28 °FSnow showers. Mostly cloudy.8 mph100%30.24 "Hg1 mi
2:00 AM28 °FSnow showers. Mostly cloudy.8 mph100%30.24 "Hg1 mi
1:30 AM28 °FSnow. Mostly cloudy.8 mph100%30.24 "Hg1 mi
1:00 AM30 °FLight snow. Mostly cloudy.8 mph93%30.27 "Hg4 mi
12:30 AM30 °FLow clouds.10 mph93%30.27 "HgN/A
12:00 AM30 °FLow clouds.8 mph93%30.27 "HgN/A
11:30 PM
Thu, Mar 26
30 °FLow clouds.10 mph93%30.27 "HgN/A
11:00 PM30 °FMostly cloudy.13 mph93%30.27 "HgN/A
10:30 PM30 °FLight snow. Mostly cloudy.13 mph93%30.27 "HgN/A
10:00 PM28 °FLight snow. Passing clouds.13 mph93%30.27 "HgN/A
9:30 PM28 °FLight snow. Passing clouds.13 mph93%30.27 "HgN/A
9:00 PM28 °FLight snow. Passing clouds.15 mph93%30.27 "HgN/A
8:30 PM28 °FLight snow. Partly sunny.20 mph93%30.27 "HgN/A
8:00 PM28 °FLow clouds.20 mph93%30.27 "HgN/A
7:30 PM30 °FLow clouds.20 mph86%30.27 "HgN/A
7:00 PM28 °FLow clouds.20 mph93%30.27 "Hg4 mi
6:30 PM28 °FLight snow. Low clouds.20 mph93%30.27 "Hg4 mi
6:00 PM28 °FLight snow. Low clouds.20 mph93%30.24 "Hg4 mi
5:30 PM28 °FLight snow. Low clouds.20 mph93%30.27 "Hg3 mi
5:00 PM28 °FLight snow. Low clouds.20 mph86%30.24 "Hg5 mi
4:30 PM28 °FLow clouds.20 mph86%30.24 "Hg6 mi
4:00 PM28 °FLow clouds.20 mph86%30.24 "Hg6 mi
3:30 PM28 °FLow clouds.26 mph86%30.24 "HgN/A
3:00 PM28 °FOvercast.26 mph80%30.24 "HgN/A
2:30 PM27 °FOvercast.24 mph86%30.24 "HgN/A
2:00 PM27 °FOvercast.29 mph86%30.24 "HgN/A
1:30 PM27 °FMostly cloudy.29 mph80%30.24 "HgN/A
1:00 PM27 °FMostly cloudy.29 mph80%30.24 "HgN/A
12:30 PM27 °FPartly sunny.26 mph74%30.24 "HgN/A
12:00 PM25 °FBroken clouds.26 mph74%30.27 "Hg5 mi
11:30 AM25 °FBroken clouds.29 mph74%30.24 "Hg3 mi
11:00 AM23 °FLight snow. Overcast.31 mph80%30.24 "Hg3 mi
10:30 AM23 °FLight snow. Overcast.31 mph74%30.24 "Hg4 mi
10:00 AM23 °FOvercast.31 mph80%30.24 "Hg4 mi
9:30 AM21 °FBroken clouds.26 mph74%30.24 "HgN/A
9:00 AM19 °FScattered clouds.29 mph79%30.24 "Hg4 mi
8:30 AM19 °FPartly sunny.31 mph79%30.24 "Hg3 mi
8:00 AM19 °FPartly cloudy.31 mph79%30.24 "Hg3 mi
Weather by CustomWeather, © 2015

See weather overviewHow to use our weather pages